Погода в Новом

Украина / Запорожская область     46°47′01″N   35°16′39″E
темп.,
°C
ветер,
м/с
пор.,
м/с
влажн.,
%
обл.,
%
осадки,
мм/ч
давл.,
гПа
погр.,
м
24 февраля, ср
ср2423:00−5в695387 0.0 1039610
02:00−6в585289 0.0 1039530
05:00−6в5749100 0.0 1039504
08:00−6в5752100 0.1 1039482
11:00−4вюв6754100 0.2 1039538
14:00−3в4550100 0.2 1038617
17:00−5вюв355032 0.0 1037478
20:00−5в345433 0.0 1037261
25 февраля, чт
чт2523:00−5в345797 0.0 1037230
02:00−6всв236458 0.0 1037129
05:00−5вюв226482 0.0 103646
08:00−3ююв246388 0.0 1035158
11:00+1юз355696 0.0 1035476
14:00+1зюз476298 0.0 1033420
17:000зюз3771100 0.0 1031285
20:00+1зюз488395 0.0 1031257
26 февраля, пт
пт2623:00+2зюз4995100 0.0 1030220
02:00+2з4997100 0.1 1029224
05:00+2з4798100 0.1 1028198
08:00+3з3699100 0.1 1028156
11:00+5з4692100 0.0 1027281
14:00+7з4887100 0.0 1025503
17:00+7зюз379196 0.0 1023146
20:00+5зюз5109367 0.0 1023223
27 февраля, сб
сб2723:00+4зюз512955 0.0 1021324
02:00+5з5129539 0.0 1020409
05:00+4з4996100 0.0 1018270
08:00+5з4797100 0.0 1018243
11:00+6з4792100 0.0 1017400
14:00+9з5677100 0.0 1016737
17:00+6з3793100 0.6 1016300
20:00+5зсз3891100 2.0 1016332
28 февраля, вс
вс2823:00+4ссз4982100 0.0 1017323
02:00+1сз499062 0.0 1017245
05:00+1сз479330 0.0 1018298
08:00+2сз589244 0.0 1019484
11:00+3сз4777100 0.1 1020861
14:00+4ссз6868100 0.3 10201023
17:00+3ссз596993 0.1 1020947
20:000ссз599796 0.3 1023480